Weather History for KLWA - April, 2014

Change the Weather History Date:

Thursday, April 3, 2014

  Actual Average (KBIV) Record (KBIV)
Temperature  
Mean Temperature 40 °F 44 °F  
Max Temperature 46 °F 53 °F 80 °F (1956)
Min Temperature 33 °F 34 °F 13 °F (1965)
Degree Days  
Heating Degree Days 26 22  
Month to date heating degree days 66  
Since 1 July heating degree days 5440  
Cooling Degree Days 0 0  
Month to date cooling degree days 0  
Year to date cooling degree days 0  
Moisture  
Dew Point 32 °F    
Average Humidity 74    
Maximum Humidity 93    
Minimum Humidity 47    
Precipitation  
Precipitation 0.00 in 0.07 in 1.37 in (1967)
Month to date precipitation 0.22  
Year to date precipitation 6.38  
Sea Level Pressure  
Sea Level Pressure 29.92 in    
Wind  
Wind Speed 13 mph (East)    
Max Wind Speed 24 mph    
Max Gust Speed 34 mph    
Visibility 8 miles    
Events Rain , Snow    
T = Trace of Precipitation, MM = Missing Value Source: NWS Daily Summary

Daily Weather History Graph

Daily Weather History Graph

Search for Another Location

Airport or City:

Trip Planner

Search our weather history database for the weather conditions in past years. The results will help you decide how hot, cold, wet, or windy it might be!

Date:

Astronomy

Apr. 03, 2014 Rise Set
Actual Time 7:24 AM EDT 8:13 PM EDT
Civil Twilight 6:55 AM EDT 8:41 PM EDT
Nautical Twilight 6:21 AM EDT 9:15 PM EDT
Astronomical Twilight 5:46 AM EDT 9:50 PM EDT
Moon 9:48 AM EDT (4/3) No Moon Set
Length of Visible Light 13h 46m
Length of Day
12h 49m
Waxing Crescent, 17% of the Moon is Illuminated
Apr 3
Waxing Crescent
Apr 7
First Quarter
Apr 15
Full
Apr 22
Last Quarter
Apr 29
New

Hourly Weather History & Observations

Time (EDT) Temp. Windchill Dew Point Humidity Pressure Visibility Wind Dir Wind Speed Gust Speed Precip Events Conditions
12:15 AM 46.4 °F 43.5 °F 28.6 °F 50% 30.10 in 10.0 mi East 5.8 mph - N/A   Overcast
12:36 AM 45.9 °F 40.8 °F 29.3 °F 52% 30.10 in 10.0 mi ENE 10.4 mph - N/A Rain Light Rain
12:55 AM 45.5 °F 40.3 °F 29.5 °F 54% 30.10 in 10.0 mi ENE 10.4 mph - N/A   Overcast
1:15 AM 45.3 °F 40.6 °F 29.8 °F 55% 30.09 in 10.0 mi East 9.2 mph - N/A   Overcast
1:35 AM 44.6 °F 38.8 °F 30.6 °F 58% 30.07 in 10.0 mi ENE 11.5 mph 17.3 mph N/A   Overcast
1:55 AM 44.6 °F 39.7 °F 30.2 °F 57% 30.06 in 10.0 mi East 9.2 mph 17.3 mph N/A   Overcast
2:16 AM 44.6 °F 39.7 °F 30.0 °F 57% 30.07 in 10.0 mi East 9.2 mph - N/A   Overcast
2:35 AM 44.6 °F 38.4 °F 29.8 °F 56% 30.06 in 10.0 mi East 12.7 mph 17.3 mph N/A   Overcast
2:55 AM 44.6 °F 39.2 °F 29.7 °F 56% 30.07 in 10.0 mi East 10.4 mph - N/A   Overcast
3:15 AM 44.6 °F 41.4 °F 29.5 °F 55% 30.07 in 10.0 mi East 5.8 mph - N/A   Overcast
3:35 AM 44.4 °F 38.2 °F 29.1 °F 55% 30.05 in 10.0 mi East 12.7 mph 18.4 mph N/A   Overcast
3:56 AM 44.6 °F 38.1 °F 28.6 °F 53% 30.05 in 10.0 mi East 13.8 mph 17.3 mph N/A   Overcast
4:15 AM 44.2 °F 37.3 °F 28.8 °F 55% 30.04 in 10.0 mi East 15.0 mph 21.9 mph N/A   Overcast
4:35 AM 44.1 °F 38.1 °F 29.1 °F 56% 30.03 in 10.0 mi East 11.5 mph 18.4 mph N/A   Overcast
4:56 AM 43.7 °F 38.1 °F 29.8 °F 58% 30.03 in 10.0 mi East 10.4 mph 20.7 mph N/A   Overcast
5:15 AM 43.7 °F 36.3 °F 30.2 °F 59% 30.02 in 10.0 mi East 16.1 mph 23.0 mph N/A   Overcast
5:36 AM 43.7 °F 37.3 °F 30.2 °F 59% 30.01 in 10.0 mi East 12.7 mph 20.7 mph N/A   Overcast
5:55 AM 43.7 °F 36.3 °F 29.3 °F 57% 30.00 in 10.0 mi East 16.1 mph 25.3 mph N/A   Overcast
6:15 AM 43.5 °F 37.9 °F 29.1 °F 57% 30.01 in 10.0 mi East 10.4 mph 20.7 mph N/A   Overcast
6:36 AM 43.5 °F 36.4 °F 28.2 °F 55% 30.00 in 10.0 mi East 15.0 mph 20.7 mph N/A   Overcast
6:55 AM 43.2 °F 35.6 °F 27.3 °F 54% 30.00 in 10.0 mi East 16.1 mph 21.9 mph N/A   Overcast
7:15 AM 43.2 °F 34.5 °F 25.9 °F 51% 29.98 in 10.0 mi ESE 20.7 mph 27.6 mph N/A   Overcast
7:35 AM 43.0 °F 35.1 °F 25.2 °F 49% 29.99 in 10.0 mi East 17.3 mph 25.3 mph N/A   Overcast
7:55 AM 42.8 °F 34.8 °F 23.9 °F 47% 29.99 in 10.0 mi East 17.3 mph 29.9 mph N/A   Overcast
8:16 AM 41.5 °F 32.6 °F 24.4 °F 51% 29.98 in 10.0 mi East 19.6 mph 27.6 mph N/A Rain Rain
8:35 AM 39.7 °F 29.7 °F 26.6 °F 59% 29.97 in 10.0 mi East 21.9 mph 27.6 mph N/A Rain Light Rain
8:55 AM 39.2 °F 30.8 °F 26.4 °F 60% 29.96 in 10.0 mi East 15.0 mph 26.5 mph N/A Rain Light Rain
9:16 AM 38.5 °F 29.9 °F 27.7 °F 65% 29.96 in 10.0 mi East 15.0 mph - N/A Rain Light Rain
9:35 AM 37.9 °F 28.5 °F 28.0 °F 68% 29.96 in 7.0 mi East 17.3 mph 26.5 mph N/A Rain Light Rain
9:55 AM 36.7 °F 27.2 °F 29.8 °F 76% 29.95 in 4.0 mi ESE 16.1 mph 28.8 mph N/A Rain Light Rain
10:16 AM 36.0 °F 25.6 °F 30.7 °F 81% 29.96 in 4.0 mi East 18.4 mph 25.3 mph N/A Snow Light Snow
10:35 AM 35.6 °F 26.2 °F 30.7 °F 82% 29.96 in 4.0 mi East 15.0 mph 27.6 mph N/A Snow Light Snow
10:56 AM 34.9 °F 23.9 °F 30.9 °F 85% 29.95 in 2.5 mi East 19.6 mph 31.1 mph N/A Snow Light Snow
11:15 AM 34.7 °F 24.7 °F 31.1 °F 87% 29.95 in 2.5 mi East 16.1 mph 25.3 mph N/A Snow Light Snow
11:35 AM 34.3 °F 23.2 °F 31.1 °F 88% 29.95 in 3.0 mi East 19.6 mph 26.5 mph N/A Snow Light Snow
11:56 AM 33.8 °F 22.5 °F 31.1 °F 90% 29.94 in 2.0 mi East 19.6 mph 27.6 mph N/A Snow Light Snow
12:15 PM 34.0 °F 23.4 °F 31.1 °F 89% 29.93 in 2.5 mi East 17.3 mph 26.5 mph N/A Snow Light Snow
12:35 PM 34.0 °F 23.4 °F 31.8 °F 92% 29.90 in 3.0 mi East 17.3 mph 25.3 mph N/A Snow Light Snow
12:55 PM 34.2 °F 22.1 °F 31.8 °F 91% 29.90 in 5.0 mi East 23.0 mph 32.2 mph N/A Snow Light Snow
1:15 PM 34.5 °F 23.1 °F 32.0 °F 90% 29.88 in 5.0 mi East 20.7 mph 28.8 mph N/A Snow Light Snow
1:36 PM 34.7 °F 23.4 °F 32.2 °F 91% 29.85 in 5.0 mi East 20.7 mph 31.1 mph N/A Snow Light Snow
1:55 PM 35.8 °F 23.9 °F 33.6 °F 92% 29.82 in 5.0 mi ESE 24.2 mph 31.1 mph N/A Snow Light Snow
2:15 PM 37.4 °F 26.9 °F 35.1 °F 91% 29.80 in 10.0 mi East 20.7 mph 31.1 mph N/A   Mostly Cloudy
2:36 PM 38.5 °F 28.1 °F 35.6 °F 89% 29.79 in 10.0 mi ESE 21.9 mph 34.5 mph N/A   Overcast
2:55 PM 38.7 °F 29.8 °F 35.2 °F 87% 29.80 in 10.0 mi ESE 16.1 mph 25.3 mph N/A   Overcast
3:15 PM 39.0 °F 31.0 °F 35.8 °F 88% 29.80 in 10.0 mi East 13.8 mph 21.9 mph N/A   Overcast
3:35 PM 40.1 °F 33.2 °F 36.5 °F 87% 29.80 in 10.0 mi East 11.5 mph 18.4 mph N/A   Overcast
3:55 PM 40.1 °F 33.6 °F 36.0 °F 85% 29.78 in 10.0 mi East 10.4 mph 17.3 mph N/A   Overcast
4:16 PM 39.6 °F 33.5 °F 35.6 °F 86% 29.77 in 10.0 mi ENE 9.2 mph - N/A   Overcast
4:35 PM 39.4 °F 31.8 °F 35.2 °F 85% 29.77 in 10.0 mi ENE 12.7 mph 17.3 mph N/A   Overcast
4:55 PM 39.2 °F 33.0 °F 35.4 °F 86% 29.81 in 7.0 mi NE 9.2 mph - N/A   Overcast
5:16 PM 38.5 °F 32.7 °F 35.8 °F 90% 29.83 in 2.0 mi East 8.1 mph - N/A   Drizzle
5:35 PM 38.7 °F 33.6 °F 36.5 °F 92% 29.83 in 2.5 mi ENE 6.9 mph - N/A   Overcast
5:55 PM 38.5 °F 31.6 °F 36.7 °F 93% 29.83 in 3.0 mi ENE 10.4 mph - N/A   Overcast
6:15 PM 38.3 °F 32.5 °F 36.5 °F 93% 29.83 in 3.0 mi ENE 8.1 mph - N/A   Overcast
6:35 PM 37.9 °F 30.5 °F 36.1 °F 93% 29.82 in 3.0 mi ENE 11.5 mph 16.1 mph N/A   Overcast
6:55 PM 37.9 °F 29.6 °F 36.1 °F 93% 29.82 in 4.0 mi East 13.8 mph 19.6 mph N/A   Overcast
7:15 PM 37.9 °F 30.9 °F 36.0 °F 93% 29.82 in 7.0 mi East 10.4 mph 18.4 mph N/A   Overcast
7:35 PM 38.3 °F 30.5 °F 35.6 °F 90% 29.82 in 10.0 mi East 12.7 mph 20.7 mph N/A   Overcast
7:55 PM 38.3 °F 28.7 °F 35.2 °F 89% 29.82 in 10.0 mi East 18.4 mph 25.3 mph N/A   Overcast
8:15 PM 38.3 °F 30.1 °F 34.9 °F 87% 29.82 in 10.0 mi East 13.8 mph 20.7 mph N/A   Overcast
8:36 PM 38.3 °F 29.7 °F 34.7 °F 87% 29.82 in 10.0 mi East 15.0 mph 26.5 mph N/A   Overcast
8:55 PM 38.3 °F 30.9 °F 34.5 °F 86% 29.83 in 10.0 mi East 11.5 mph 21.9 mph N/A   Overcast
9:15 PM 38.3 °F 30.1 °F 34.3 °F 86% 29.83 in 10.0 mi ESE 13.8 mph 20.7 mph N/A   Overcast
9:35 PM 38.3 °F 29.3 °F 34.2 °F 85% 29.83 in 10.0 mi East 16.1 mph 19.6 mph N/A   Overcast
9:55 PM 38.3 °F 29.3 °F 34.2 °F 85% 29.83 in 10.0 mi East 16.1 mph 21.9 mph N/A   Overcast
10:16 PM 38.3 °F 31.4 °F 34.5 °F 86% 29.83 in 10.0 mi East 10.4 mph - N/A   Overcast
10:35 PM 38.3 °F 30.9 °F 34.5 °F 86% 29.81 in 10.0 mi ESE 11.5 mph 19.6 mph N/A   Overcast
11:55 PM 37.4 °F 28.9 °F 33.8 °F 87% 29.72 in 10.0 mi East 13.8 mph 21.9 mph N/A   Overcast